This is the latest recevied weather packets stored in our database for station/object SQ9SMC-13. If no packets are shown the sender has not sent any weather packets the latest 10 day(s).
| Time | Temp. | Humidity | Pressure | Rain* | Wind** | Luminosity | Snow |
|---|---|---|---|---|---|---|---|
| 1777224904 | 8.89° C | 37% | 1024.3 hPa | 0 mm | - | 9 W/m² | - |
| 1777224603 | 8.89° C | 35% | 1024.3 hPa | 0 mm | - | 11 W/m² | - |
| 1777224303 | 8.89° C | 37% | 1024.2 hPa | 0 mm | - | 13 W/m² | - |
| 1777224004 | 8.89° C | 35% | 1024.2 hPa | 0 mm | - | 14 W/m² | - |
| 1777223703 | 9.44° C | 35% | 1024.1 hPa | 0 mm | - | 17 W/m² | - |
| 1777223405 | 10° C | 35% | 1024.2 hPa | 0 mm | - | 21 W/m² | - |
| 1777223103 | 10° C | 35% | 1024.1 hPa | 0 mm | - | 25 W/m² | - |
| 1777222803 | 10° C | 35% | 1024.1 hPa | 0 mm | - | 29 W/m² | - |
| 1777222503 | 10° C | 34% | 1024 hPa | 0 mm | - | 27 W/m² | - |
| 1777222204 | 10° C | 34% | 1024 hPa | 0 mm | - | 31 W/m² | - |
| 1777221902 | 10.56° C | 34% | 1024.1 hPa | 0 mm | - | 31 W/m² | - |
| 1777221603 | 10.56° C | 34% | 1024.1 hPa | 0 mm | - | 37 W/m² | - |
| 1777221303 | 11.11° C | 35% | 1024 hPa | 0 mm | - | 44 W/m² | - |
| 1777221003 | 11.11° C | 34% | 1024 hPa | 0 mm | - | 67 W/m² | - |
| 1777220703 | 11.11° C | 33% | 1024.1 hPa | 0 mm | - | 51 W/m² | - |
| 1777220406 | 11.11° C | 33% | 1024.2 hPa | 0 mm | - | 55 W/m² | - |
| 1777220104 | 11.11° C | 33% | 1023.8 hPa | 0 mm | - | 59 W/m² | - |
| 1777219803 | 11.11° C | 32% | 1024 hPa | 0 mm | - | 97 W/m² | - |
| 1777219504 | 11.11° C | 32% | 1023.8 hPa | 0 mm | - | 116 W/m² | - |
| 1777219206 | 11.67° C | 32% | 1023.8 hPa | 0 mm | - | 128 W/m² | - |
| 1777218902 | 11.67° C | 33% | 1023.9 hPa | 0 mm | - | 138 W/m² | - |
| 1777218603 | 11.67° C | 32% | 1023.8 hPa | 0 mm | - | 145 W/m² | - |
| 1777218303 | 11.67° C | 32% | 1023.8 hPa | 0 mm | - | 154 W/m² | - |
| 1777218003 | 11.67° C | 32% | 1023.7 hPa | 0 mm | - | 165 W/m² | - |
| 1777217704 | 11.67° C | 33% | 1023.8 hPa | 0 mm | - | 176 W/m² | - |
* Rain latest hour (hover to see other rain measurements)
** Current wind speed in m/s (hover to see current wind gust speed)